Weather in Kuret

Russia / Irkutsk Oblast     52°49′11″N   106°12′13″E
temp.,
°C
wind,
m/s
gust,
m/s
humid.,
%
clouds,
%
prec.,
mm/h
press.,
hPa
HPBL,
m
19 april, mon
mon1923:00−5ene284998 0.0 1023293
02:00−6e235698 0.0 102291
05:00−6ene2351100 0.0 1022145
08:00−4e3542100 0.0 1021435
11:000ese463443 0.0 1018554
14:00+2ese473390 0.0 1013556
17:00+3ese484011 0.0 1009382
20:00−2e236199 0.0 100963
20 april, tue
tue2023:00−1e236499 0.0 100768
02:00−2nw336947 0.0 100845
05:000nnw5115698 0.0 1012780
08:00−2nnw5951100 0.0 1014715
11:00+1n4535100 0.0 10131033
14:00+3n3337100 0.0 10131674
17:00+1nnw3451100 0.2 10131172
20:00−1n3561100 0.3 1014315
21 april, wed
wed2123:00−3nnw2382100 0.1 1015275
02:00−5nnw4986100 0.5 1017576
05:00−5nnw3889100 1.1 1017567
08:00−5n3783100 1.8 1019601
11:00−3n5660100 0.3 1019977
14:00−1n5749100 0.4 10191372
17:000n5641100 0.0 10191658
20:00−5nnw2261100 0.0 102317
22 april, thu
thu2223:00−6nw2268100 0.0 102639
02:00−9nw22805 0.0 102926
05:00−11nw2287100 0.0 103124
08:00−4nnw2650100 0.0 1030541
11:00−1ene3335100 0.0 10301441
14:00−1ese4446100 0.0 10301233
17:00−2e3452100 0.0 1032740
20:00−4ene1258100 0.0 1035110
23 april, fri
fri2323:00−5nnw1158100 0.0 103726
02:00−5nw1162100 0.0 103914
05:00−6wnw1168100 0.0 104014
08:00−2wnw1163100 0.0 1041266
11:00+2n1241100 0.0 10411500
14:00+4se1337100 0.0 10411607
17:00+3se2244100 0.0 1042706
20:00−3sse1175100 0.0 104510